Change the Weather History Date:

Monday, June 17, 2013

  Actual Average (KAPC) Record (KAPC)
Temperature  
Mean Temperature 60 °F 65 °F  
Max Temperature 73 °F 79 °F 88 °F (2006)
Min Temperature 48 °F 50 °F 43 °F (2010)
Degree Days  
Heating Degree Days 4    
Month to date heating degree days  
Since 1 June heating degree days  
Since 1 July heating degree days  
Cooling Degree Days 0    
Month to date cooling degree days  
Year to date cooling degree days  
Since 1 June cooling degree days  
Growing Degree Days 10 (Base 50)    
Moisture  
Dew Point 51 °F    
Average Humidity 76    
Maximum Humidity 100    
Minimum Humidity 49    
Precipitation  
Precipitation 0.00 in - 0.00 in (2015)
Month to date precipitation  
Year to date precipitation  
Since 1 July precipitation  
Sea Level Pressure  
Sea Level Pressure 30.07 in    
Wind  
Wind Speed 9 mph (WNW)    
Max Wind Speed 28 mph    
Max Gust Speed 37 mph    
Visibility 10 miles    
Events      
T = Trace of Precipitation, MM = Missing Value Source: NWS Daily Summary

Daily Weather History Graph

Daily Weather History Graph

Search for Another Location

Airport or City:

Trip Planner

Search our weather history database for the weather conditions in past years. The results will help you decide how hot, cold, wet, or windy it might be!

Date:

Astronomy

Jun. 17, 2013 Rise Set
Actual Time 5:46 AM PDT 8:36 PM PDT
Civil Twilight 5:15 AM PDT 9:07 PM PDT
Nautical Twilight 4:35 AM PDT 9:47 PM PDT
Astronomical Twilight 3:50 AM PDT 10:33 PM PDT
Moon 2:24 PM PDT (6/17) 1:20 AM PDT (6/17)
Length of Visible Light 15h 52m
Length of Day
14h 49m
First Quarter, 61% of the Moon is Illuminated
Jun 17
First Quarter
Jun 23
Full
Jun 29
Last Quarter
Jul 8
New
Jul 15
First Quarter

Hourly Weather History & Observations

Time (PDT) Temp. Dew Point Humidity Pressure Visibility Wind Dir Wind Speed Gust Speed Precip Events Conditions
12:15 AM 53.6 °F 48.2 °F 82% 30.10 in 10.0 mi WNW 6.9 mph - N/A   Clear
12:35 AM 50.0 °F 46.4 °F 87% 30.09 in 10.0 mi WNW 4.6 mph - N/A   Clear
12:55 AM 50.0 °F 46.4 °F 87% 30.09 in 10.0 mi Calm Calm - N/A   Clear
1:15 AM 50.0 °F 48.2 °F 94% 30.09 in 10.0 mi NNW 3.5 mph - N/A   Clear
1:35 AM 50.0 °F 46.4 °F 87% 30.09 in 10.0 mi NNW 3.5 mph - N/A   Clear
1:55 AM 50.0 °F 48.2 °F 94% 30.09 in 10.0 mi NNW 4.6 mph - N/A   Clear
2:15 AM 50.0 °F 46.4 °F 87% 30.09 in 10.0 mi Calm Calm - N/A   Clear
2:35 AM 48.2 °F 46.4 °F 93% 30.09 in 10.0 mi NNW 3.5 mph - N/A   Partly Cloudy
2:55 AM 48.2 °F 46.4 °F 93% 30.08 in 10.0 mi NNW 3.5 mph - N/A   Scattered Clouds
3:15 AM 48.2 °F 48.2 °F 100% 30.08 in 10.0 mi NNW 4.6 mph - N/A   Partly Cloudy
3:35 AM 50.0 °F 48.2 °F 94% 30.08 in 10.0 mi NNW 3.5 mph - N/A   Clear
3:55 AM 48.2 °F 48.2 °F 100% 30.08 in 10.0 mi NNW 4.6 mph - N/A   Clear
4:15 AM 50.0 °F 48.2 °F 94% 30.08 in 10.0 mi NW 3.5 mph - N/A   Clear
4:35 AM 50.0 °F 48.2 °F 94% 30.08 in 10.0 mi NW 5.8 mph - N/A   Clear
4:55 AM 50.0 °F 48.2 °F 94% 30.08 in 10.0 mi NNW 4.6 mph - N/A   Clear
5:15 AM 48.2 °F 48.2 °F 100% 30.08 in 10.0 mi NNW 3.5 mph - N/A   Clear
5:35 AM 48.2 °F 48.2 °F 100% 30.09 in 10.0 mi Calm Calm - N/A   Clear
5:55 AM 48.2 °F 48.2 °F 100% 30.09 in 10.0 mi NW 4.6 mph - N/A   Clear
6:15 AM 50.0 °F 48.2 °F 94% 30.09 in 10.0 mi NW 3.5 mph - N/A   Clear
6:35 AM 50.0 °F 48.2 °F 94% 30.09 in 10.0 mi NW 3.5 mph - N/A   Clear
6:55 AM 51.8 °F 50.0 °F 94% 30.10 in 10.0 mi NW 4.6 mph - N/A   Clear
7:15 AM 53.6 °F 50.0 °F 88% 30.10 in 10.0 mi NW 6.9 mph - N/A   Clear
7:35 AM 53.6 °F 50.0 °F 88% 30.10 in 10.0 mi West 9.2 mph - N/A   Clear
7:55 AM 55.4 °F 50.0 °F 82% 30.10 in 10.0 mi West 9.2 mph - N/A   Clear
8:15 AM 57.2 °F 50.0 °F 77% 30.10 in 10.0 mi West 8.1 mph - N/A   Clear
8:35 AM 59.0 °F 50.0 °F 72% 30.10 in 10.0 mi NW 6.9 mph - N/A   Clear
8:55 AM 62.6 °F 50.0 °F 63% 30.09 in 10.0 mi West 9.2 mph - N/A   Clear
9:15 AM 62.6 °F 50.0 °F 63% 30.09 in 10.0 mi WNW 10.4 mph - N/A   Clear
9:35 AM 64.4 °F 50.0 °F 59% 30.09 in 10.0 mi WNW 9.2 mph - N/A   Clear
9:55 AM 66.2 °F 50.0 °F 56% 30.09 in 10.0 mi West 10.4 mph - N/A   Clear
10:15 AM 68.0 °F 50.0 °F 52% 30.08 in 10.0 mi WNW 12.7 mph 18.4 mph N/A   Clear
10:35 AM 69.8 °F 50.0 °F 49% 30.08 in 10.0 mi West 13.8 mph - N/A   Clear
10:55 AM 69.8 °F 50.0 °F 49% 30.09 in 10.0 mi West 15.0 mph 20.7 mph N/A   Clear
11:15 AM 71.6 °F 53.6 °F 53% 30.09 in 10.0 mi West 13.8 mph - N/A   Clear
11:35 AM 71.6 °F 53.6 °F 53% 30.09 in 10.0 mi West 15.0 mph 21.9 mph N/A   Clear
11:55 AM 71.6 °F 53.6 °F 53% 30.09 in 10.0 mi West 12.7 mph 23.0 mph N/A   Clear
12:15 PM 71.6 °F 53.6 °F 53% 30.09 in 10.0 mi West 16.1 mph 23.0 mph N/A   Clear
12:35 PM 73.4 °F 53.6 °F 50% 30.09 in 10.0 mi West 16.1 mph 24.2 mph N/A   Clear
12:55 PM 73.4 °F 53.6 °F 50% 30.08 in 10.0 mi West 18.4 mph 31.1 mph N/A   Clear
1:15 PM 73.4 °F 55.4 °F 53% 30.08 in 10.0 mi West 16.1 mph 26.5 mph N/A   Clear
1:35 PM 73.4 °F 55.4 °F 53% 30.08 in 10.0 mi West 18.4 mph 24.2 mph N/A   Clear
1:55 PM 73.4 °F 53.6 °F 50% 30.07 in 10.0 mi West 21.9 mph 28.8 mph N/A   Clear
2:15 PM 71.6 °F 53.6 °F 53% 30.07 in 10.0 mi West 20.7 mph 35.7 mph N/A   Clear
2:35 PM 71.6 °F 53.6 °F 53% 30.07 in 10.0 mi West 23.0 mph 32.2 mph N/A   Clear
2:55 PM 71.6 °F 53.6 °F 53% 30.07 in 10.0 mi West 21.9 mph 35.7 mph N/A   Clear
3:15 PM 71.6 °F 53.6 °F 53% 30.06 in 10.0 mi West 27.6 mph 36.8 mph N/A   Clear
3:35 PM 71.6 °F 53.6 °F 53% 30.06 in 10.0 mi West 27.6 mph 34.5 mph N/A   Clear
3:55 PM 71.6 °F 53.6 °F 53% 30.06 in 7.0 mi WSW 25.3 mph 32.2 mph N/A   Clear
4:15 PM 69.8 °F 53.6 °F 56% 30.05 in 5.0 mi West 23.0 mph 31.1 mph N/A   Clear
4:35 PM 71.6 °F 53.6 °F 53% 30.05 in 9.0 mi West 23.0 mph 29.9 mph N/A   Clear
4:55 PM 69.8 °F 53.6 °F 56% 30.05 in 10.0 mi West 23.0 mph 31.1 mph N/A   Clear
5:15 PM 68.0 °F 53.6 °F 60% 30.05 in 10.0 mi West 19.6 mph 27.6 mph N/A   Clear
5:35 PM 66.2 °F 53.6 °F 64% 30.05 in 10.0 mi West 17.3 mph 29.9 mph N/A   Clear
5:55 PM 66.2 °F 53.6 °F 64% 30.05 in 10.0 mi West 16.1 mph 25.3 mph N/A   Clear
6:15 PM 64.4 °F 53.6 °F 68% 30.04 in 10.0 mi West 20.7 mph 28.8 mph N/A   Clear
6:35 PM 64.4 °F 53.6 °F 68% 30.04 in 10.0 mi West 18.4 mph 28.8 mph N/A   Clear
6:55 PM 62.6 °F 53.6 °F 72% 30.04 in 10.0 mi WNW 16.1 mph 28.8 mph N/A   Clear
7:15 PM 60.8 °F 53.6 °F 77% 30.04 in 10.0 mi WNW 10.4 mph - N/A   Scattered Clouds
7:35 PM 59.0 °F 53.6 °F 82% 30.04 in 10.0 mi West 12.7 mph 19.6 mph N/A   Scattered Clouds
7:55 PM 59.0 °F 53.6 °F 82% 30.04 in 10.0 mi WNW 13.8 mph 18.4 mph N/A   Partly Cloudy
8:15 PM 57.2 °F 53.6 °F 88% 30.03 in 10.0 mi WNW 8.1 mph - N/A   Mostly Cloudy
8:35 PM 57.2 °F 53.6 °F 88% 30.03 in 10.0 mi WNW 11.5 mph - N/A   Overcast
8:55 PM 57.2 °F 53.6 °F 88% 30.03 in 10.0 mi West 5.8 mph - N/A   Mostly Cloudy
9:15 PM 55.4 °F 53.6 °F 94% 30.04 in 5.0 mi West 11.5 mph - N/A   Partly Cloudy
9:35 PM 55.4 °F 53.6 °F 94% 30.04 in 10.0 mi West 11.5 mph - N/A   Scattered Clouds
9:55 PM 55.4 °F 53.6 °F 94% 30.05 in 10.0 mi West 9.2 mph - N/A   Mostly Cloudy
10:15 PM 55.4 °F 53.6 °F 94% 30.05 in 10.0 mi West 12.7 mph - N/A   Mostly Cloudy
10:35 PM 55.4 °F 53.6 °F 94% 30.05 in 10.0 mi West 12.7 mph - N/A   Overcast
10:55 PM 55.4 °F 53.6 °F 94% 30.05 in 10.0 mi WNW 9.2 mph - N/A   Overcast
11:15 PM 55.4 °F 53.6 °F 94% 30.04 in 10.0 mi WNW 11.5 mph 18.4 mph N/A   Overcast
11:35 PM 55.4 °F 53.6 °F 94% 30.04 in 10.0 mi West 12.7 mph - N/A   Overcast
11:55 PM 53.6 °F 53.6 °F 100% 30.04 in 10.0 mi WNW 9.2 mph - N/A   Overcast